sat.trackr.live / text

‹ back to catalog

GLOBALSTAR M086

NORAD 38045 · 2011-080F

PAYLOAD ACTIVE UNKNOWN

§ Identity

Operator
Country
GLOB
Launch date
2011-12-28
Launch site
TYMSC
Launch vehicle
Mass (kg)
RCS (m²)
4.52

Purposes: comms

External: N2YO · Heavens-Above · Gunter

§ Orbital elements

Epoch: 2026-09-08T22:37:34.807872Z

Period
114.08 min
Inclination
51.9889°
Eccentricity
0.0000659
Mean motion
12.62289019 rev/d
Perigee alt
1,413.0 km
Apogee alt
1,414.0 km
Semi-major
7,791.6 km
B*
9.2677e-5
RAAN
73.3294°
Arg perigee
195.6153°
Mean anomaly
327.6931°
Rev number
68,023

§ Raw data

GLOBALSTAR M0861 38045U 11080F   26251.94276398 -.00000087  00000+0  92677-4 0  99942 38045  51.9889  73.3294 0000659 195.6153 327.6931 12.62289019680230

JSON: /api/v1/satellites/38045 · /tle

For live sub-satellite position, see the globe view (requires WebGL).

§ Visibility from observer

Set your observer location to see the next 7 days of passes ≥ 10°. The values pass through the URL so the page stays shareable.

No JS? Fill the form by hand. The geolocation button needs JavaScript.